Find Starlink 34627

NORAD ID: 65016 Int'l Des: 2025-161 Owner: SPXS Country: US Constellation: starlink operational
LEOCIRCULAR

現在のビュー

3D地球を読み込み中...

About Starlink 34627

Starlink 34627 (NORAD 65016) is a starlink constellation satellite (v2 mini) launched Jul 30, 2025 by SPXS of US. It operates in LEO, CIRCULAR orbit with a mass of 575.00 kg.

次回通過

Passes for default location (London). Set your location on the main map for personalized predictions.

高度履歴

Loading altitude history...

軌道要素

1 65016U 25161B 26236.28846782 .00027460 00000-0 82081-3 0 9998
2 65016 53.1557 234.7579 0001044 84.7695 275.3426 15.34402479 61118
Epoch: Aug 24, 2026 • Age: 20 hours

現在のステータス

高度 479.1 km
遠地点 / 近地点 N/A
速度 7.63 km/s
衛星直下点 -46.53°S, 88.16°E
打ち上げ日 Jul 30, 2025
運用期間 1 year
タイプ internet

技術仕様

分類 Payload
質量 575.00 kg
乾燥質量 530.00 kg
総質量 575.00 kg
長さ 0.30 m
直径 4.10 m
スパン 29.00 m
形状 Box + pan
製造者 SPXS
バスタイプ Starlink V2MO
フェーズステータス In Orbit
所有者/国 SPXS/US

Most Searched